AirNav   Pilot Hours Calculator
 
 505 users online  

T23 Albany Municipal Airport
Albany, Texas, USA

GOING TO ALBANY?


FAA INFORMATION EFFECTIVE 05 DECEMBER 2019

Location

FAA Identifier: T23
Lat/Long: 32-43-17.0000N 099-16-03.3000W
32-43.283333N 099-16.055000W
32.7213889,-99.2675833
(estimated)
Elevation: 1414.8 ft. / 431.2 m (surveyed)
Variation: 05E (2015)
From city: 2 miles E of ALBANY, TX
Time zone: UTC -6 (UTC -5 during Daylight Saving Time)
Zip code: 76430

Airport Operations

Airport use: Open to the public
Activation date: 07/1985
Control tower: no
ARTCC: FORT WORTH CENTER
FSS: FORT WORTH FLIGHT SERVICE STATION
NOTAMs facility: FTW (NOTAM-D service available)
Attendance: IREG
Wind indicator: lighted
Segmented circle: yes
Lights: MIRL RY 17/35 PRESET LOW INTST; TO INCR INTST AND ACTVT PAPI RY 17 & 35 - 123.5.
Beacon: white-green (lighted land airport)
Operates sunset to sunrise.

Airport Communications

CTAF: 122.9
ABILENE APPROACH: 125.0
ABILENE DEPARTURE: 125.0
WX AWOS-3 at BKD (19 nm E): 120.175 (254-559-5525)

Nearby radio navigation aids

VOR radial/distance  VOR name  Freq  Var
ABIr054/33.4ABILENE VORTAC113.7010E

Airport Services

Fuel available: 100LL JET-A
100LL AND JET A AVBL 24 HRS SELF SERVE.
Parking: tiedowns

Runway Information

Runway 17/35

Dimensions: 5000 x 75 ft. / 1524 x 23 m
Surface: asphalt, in excellent condition
Weight bearing capacity: 
Single wheel: 30.0
Runway edge lights: medium intensity
RUNWAY 17  RUNWAY 35
Latitude: 32-43.694867N32-42.870675N
Longitude: 099-16.068915W099-16.040798W
Elevation: 1386.0 ft.1412.4 ft.
Traffic pattern: leftright
Runway heading: 173 magnetic, 178 true353 magnetic, 358 true
Markings: nonprecision, in good conditionnonprecision, in good condition
Visual slope indicator: 2-light PAPI on left (3.00 degrees glide path)2-light PAPI on left (3.00 degrees glide path)
Touchdown point: yes, no lightsyes, no lights
Obstructions: 9 ft. road, 507 ft. from runway, 34:1 slope to clear25 ft. pline, marked, 999 ft. from runway, 31:1 slope to clear

Airport Ownership and Management from official FAA records

Ownership: Publicly-owned
Owner: THE CITY OF ALBANY
P O BOX 3248
ALBANY, TX 76430
Phone 325-762-3133
Manager: CHUCK SHEPPARD
P O BOX 3248
ALBANY, TX 76430
Phone (940) 445-1283
AIRPORT MGR.

Airport Operational Statistics

Aircraft based on the field: 8
Single engine airplanes: 7
Helicopters: 1
    
Aircraft operations: avg 40/week *
67% local general aviation
33% transient general aviation
* for 12-month period ending 07 February 2018

Additional Remarks

FOR CD CTC FORT WORTH ARTCC AT 817-858-7584.

Instrument Procedures

NOTE: All procedures below are presented as PDF files. If you need a reader for these files, you should download the free Adobe Reader.

NOT FOR NAVIGATION. Please procure official charts for flight.
FAA instrument procedures published for use from 05 December 2019 at 0900Z to 02 January 2020 at 0900Z.

 
IAPs - Instrument Approach Procedures
RNAV (GPS) RWY 17   download (196KB)
RNAV (GPS) RWY 35   download (207KB)

Other nearby airports with instrument procedures:

KBKD - Stephens County Airport (19 nm E)
KGZN - Gregory M Simmons Memorial Airport (25 nm SE)
F56 - Arledge Field Airport (26 nm NW)
KABI - Abilene Regional Airport (28 nm SW)
KETN - Eastland Municipal Airport (30 nm SE)
 
Loc | Ops | Rwys | IFR | FBO | Links
Com | Nav | Svcs | Stats | Notes
Area around T23 (Albany Municipal Airport)
 
Road maps at: MapQuest Bing Google
 
Aerial photo
WARNING: Photo may not be current or correct
Aerial photo of T23 (Albany Municipal Airport)
Do you have a better or more recent aerial photo of Albany Municipal Airport that you would like to share? If so, please send us your photo.

 
Sectional chart

 
Airport distance calculator
Flying to Albany Municipal Airport? Find the distance to fly.

From to T23

Sunrise and sunset
Times for 16-Dec-2019
 Local
(UTC-6)
 Zulu
(UTC)
Morning civil twilight07:0613:06
Sunrise07:3413:34
Sunset17:3223:32
Evening civil twilight17:5923:59

Current date and time
Zulu (UTC)  16-Dec-2019 12:17:09
Local (UTC-6)  16-Dec-2019 06:17:09
 
METAR
KBKD 
19nm E 
161155Z AUTO 3SM BR OVC005 02/02 A3000 RMK AO2 T00180018 10038 20017
KGZN 
25nm SE 
161140Z AUTO 34011KT 2SM BR OVC003 01/00 A2997 RMK AO2
KABI 
28nm SW 
161152Z 34013KT 9SM OVC012 02/M02 A3000 RMK AO2 SLP160 T00171017 10022 20011 53021 $
KETN 
30nm SE 
161155Z AUTO 33009KT 2 1/2SM -DZ BR OVC005 00/00 A2998 RMK AO2 T00011003 10023 20000
KDYS 
34nm SW 
161156Z AUTO 33011KT 10SM OVC012 02/M03 A3000 RMK AO2 SLP163 T00161031 10021 20014 53019 PNO FZRANO $
TAF
KABI 
28nm SW 
161120Z 1612/1712 36010KT P6SM OVC010 FM161800 35013KT P6SM SCT015 FM162000 35012G20KT P6SM SKC FM162300 35012KT P6SM SKC
KDYS 
34nm SW 
160905Z 1609/1713 34012KT 9999 BKN012 OVC025 QNH2994INS TEMPO 1609/1615 35012KT OVC007 BECMG 1617/1618 33012G18KT 9999 BKN025 QNH3010INS BECMG 1623/1624 34009KT 9999 SCT050 QNH3018INS BECMG 1704/1705 34009KT 9999 SKC QNH3026INS TX05/1622Z TNM03/1707Z
NOTAMs
Click for the latest NOTAMs
NOTAMs are issued by the DoD/FAA and will open in a separate window not controlled by AirNav.

 

 
 

FBO, Fuel Providers, and Aircraft Ground Support

  
 Business Name 
 
 Contact 
 
 Services / Description 
 
Fuel Prices
 
Comments
  
Albany Municipal Airport 325-762-3133
325-762-0413
[email]
Aviation fuel, Courtesy transportation

More info about Albany Municipal Airport
Avfuel
100LL Jet A
SS $4.70 $3.59 
 Updated 13-Dec-2019
 
   write
SS=Self service
Update Fuel Prices
 

Would you like to see your business listed on this page?

 If your business provides an interesting product or service to pilots, flight crews, aircraft, or users of the Albany Municipal Airport, you should consider listing it here.  To start the listing process, click on the button below
 
Add a business
 

Other Pages about Albany Municipal Airport

Update a link
 
Copyright © AirNav, LLC. All rights reserved. Privacy Policy  Contact